Location: Siratepeler Tepesi
(39.1042°N, 32.0781°E)
Time: 10:26:28
(UTC+00:00)

ADEOS - Pass Details

Date: 11 April 2026
Orbit: 790 x 791 km, 98.8° (Epoch: 14 May)

Event Time Altitude Azimuth Distance (km) Brightness Sun altitude
Exits shadow 18:52:06 35° 213° (SSW) 1,248 4.5 -26.6°
Maximum altitude 18:53:44 47° 260° (W) 1,035 4.3 -26.8°
Drops below altitude 10° 18:58:46 10° 334° (NNW) 2,363 6.8 -27.6°
Sets 19:01:12 0° 341° (NNW) 3,297 7.7 -28.0°
